Regional Weather Roundup
Issued by NWS

Home | Current Version | Previous Version | Text Only | Print | Product List | Glossary Off
Versions: 1 2 3 4 5 6 7 8 9 10 11 12 13 14 15 16 17 18 19 20 21 22 23 24 25 26 27 28 29 30 31 32 33 34 35 36 37 38 39 40 41 42 43 44 45 46 47 48 49 50

000
ASUS43 KIND 101609
RWRIN

WEATHER ROUNDUP FOR INDIANA
NATIONAL WEATHER SERVICE INDIANAPOLIS IN
1100 AM EST SAT DEC 10 2016

NOTE: "FAIR" INDICATES FEW OR NO CLOUDS BELOW 12,000 FEET WITH NO
SIGNIFICANT WEATHER AND/OR OBSTRUCTIONS TO VISIBILITY.

* - STATION DOES NOT REPORT WEATHER SUCH AS PRECIPITATION OR FOG.

+ - STATION NOT QUALITY CONTROLLED BY THE NATIONAL WEATHER SERVICE.
    USE DATA WITH CAUTION...ESPECIALLY DEWPOINT AND RELATIVE
    HUMIDITY OBSERVATIONS.

INZ001>003-010>013-019-020-101700-
NORTHWEST INDIANA

CITY           SKY/WX    TMP DP  RH WIND       PRES   REMARKS
GARY /AIRPORT/ MOSUNNY   25  14  63 W6        30.55S WCI  18
KNOX *+        PTSUNNY   25   0  33 W12       30.53S WCI  14
LA PORTE +     MOSUNNY   22  15  73 W9        30.53R WCI  12
MICHIGAN CITY+ CLOUDY    25  16  68 W9        30.53S WCI  15
MONTICELLO +   CLOUDY    24  12  59 W9        30.55S WCI  15
RENSSELAER +     N/A     27  19  74 SW10      30.55R WCI  17
VALPARAISO     MOSUNNY   24  14  65 W9        30.53S WCI  14

$$

LMZ046-743>745-101700-
SOUTHERN LAKE MICHIGAN

STATION/POSITION TIME  TEMP    WIND        PRES    WAVE
                       AIR SEA DIR/SP/G            HT
                 (UTC) (F)     (DEG/KT/KT) (MB)    (FT)

$$

INZ004-005-014>016-021>024-101700-
NORTH CENTRAL INDIANA

CITY           SKY/WX    TMP DP  RH WIND       PRES   REMARKS
ELKHART        LGT SNOW  21  16  79 SW14      30.50R WCI   8
GOSHEN         PTSUNNY   23  13  65 SW16      30.51R WCI  10
LOGANSPORT +   CLOUDY    25  18  74 W10       30.55S WCI  15
PERU/GRISSOM   CLOUDY    25  16  68 W13       30.52S WCI  13
ROCHESTER +    CLOUDY    27  19  74 W7G16     30.53S WCI  19
SOUTH BEND     LGT SNOW  20  15  81 SW14      30.51S WCI   7
WARSAW +       CLOUDY    23  14  68 W12       30.52S WCI  12

$$

INZ006>009-017-018-025>027-101700-
NORTHEAST INDIANA

CITY           SKY/WX    TMP DP  RH WIND       PRES   REMARKS
ANGOLA *+      SUNNY     25  16  68 W14       30.48R WCI  13
AUBURN +       PTSUNNY   27  14  59 W14G20    30.52R WCI  15
FORT WAYNE     CLOUDY    25  15  66 W14       30.53R WCI  13
HUNTINGTON +   CLOUDY    25  15  67 W13       30.52S WCI  13
KENDALLVILLE + MOSUNNY   23  15  71 W18       30.49R WCI   9

$$

INZ028-029-035-036-043>045-051>053-101700-
WEST CENTRAL INDIANA

CITY           SKY/WX    TMP DP  RH WIND       PRES   REMARKS
CRAWFORDSVL +  CLOUDY    23  16  77 SW5       30.56S WCI  16
GREENCASTLE +  CLOUDY    25  19  80 W5        30.57R WCI  19
LAFAYETTE      CLOUDY    24  17  74 W7        30.57R WCI  16
TERRE HAUTE    CLOUDY    25  17  72 SW6       30.59S WCI  18

$$

INZ030>032-037>040-046>048-054>057-064-065-101700-
CENTRAL INDIANA

CITY           SKY/WX    TMP DP  RH WIND       PRES   REMARKS
ANDERSON       CLOUDY    25  16  68 SW6       30.55R WCI  18
CP ATTERBURY + CLOUDY    28  18  64 W5        30.58S WCI  23
COLUMBUS       CLOUDY    25  19  80 CALM      30.59S
FISHERS *+     CLOUDY    23  18  80 W8        30.57R WCI  14
FRANKFORT +    CLOUDY    27  18  69 W12       30.57R WCI  17
GREENWOOD *+   CLOUDY    26  17  70 W7        30.57R WCI  18
INDIANAPOLIS   CLOUDY    25  15  66 SW12      30.56R WCI  14
-EAGLE CREEK   CLOUDY    25  14  63 W7        30.56R WCI  17
KOKOMO +       CLOUDY    25  17  72 W12       30.54F WCI  14
MARION +       CLOUDY    24  17  74 SW10      30.54S HAZE    WCI  14
MT COMFORT *+  CLOUDY    25  16  68 W8        30.56R WCI  16
SHELBYVILLE    CLOUDY    26  16  65 SW9       30.56R WCI  17
ZIONSVILLE +   CLOUDY    23  16  74 W8        30.56R WCI  14

$$

INZ033-034-041-042-049-050-058-059-101700-
EAST CENTRAL INDIANA

CITY           SKY/WX    TMP DP  RH WIND       PRES   REMARKS
MUNCIE         CLOUDY    25  16  68 W8        30.54R WCI  16

$$

INZ060-061-067>069-081>083-085>088-101700-
SOUTHWEST INDIANA

CITY           SKY/WX    TMP DP  RH WIND       PRES   REMARKS
EVANSVILLE     CLOUDY    30  17  58 VRB3      30.63R
HUNTINGBURG *+ CLOUDY    27  19  72 CALM      30.61F
WASHINGTON +   CLOUDY    26  19  76 SW5       30.61F WCI  20

$$

INZ062-063-066-070>080-084-089>092-101700-
SOUTH CENTRAL AND SOUTHEAST INDIANA

CITY           SKY/WX    TMP DP  RH WIND       PRES   REMARKS
BLOOMINGTON    CLOUDY    25  17  72 W5        30.59R WCI  19
MADISON *+     MOSUNNY   28  18  64 SW9       30.60F WCI  20
NORTH VERNON + CLOUDY    27  23  86 SW7       30.58R WCI  19
SEYMOUR +      MOSUNNY   28  18  64 W8        30.60S WCI  20

$$





USA.gov is the U.S. government's official web portal to all federal, state and local government web resources and services.